• In Romania
  • List of Countries
  • For 7 days
  • Water Temperature
  • Satellite Maps
  • Weather Map
  • Weather Widgets
  • user-avatar
    Login

    Hourly Weather Novoakbulatovo

    Today, 19 October, Friday

    Time Temperature Precipitation Wind Pressure Humidity
    00:00 +3°C° 0 mm 3 mps 752 mmHg 87%
    01:00 +3°C° 0 mm 3 mps 752 mmHg 85%
    02:00 +3°C° 0 mm 3 mps 752 mmHg 87%
    03:00 +3°C° 0 mm 3 mps 751 mmHg 88%
    04:00 +2°C° 0 mm 3 mps 751 mmHg 90%
    05:00 +3°C° 0 mm 3 mps 751 mmHg 91%
    06:00 +3°C° 0 mm 3 mps 750 mmHg 92%
    07:00 +3°C° 0 mm 3 mps 750 mmHg 93%
    08:00 +4°C° 0 mm 3 mps 750 mmHg 92%
    09:00 +4°C° 0 mm 3 mps 750 mmHg 91%
    10:00 +5°C° 0 mm 3 mps 750 mmHg 91%
    11:00 +7°C° 0 mm 3 mps 750 mmHg 90%
    12:00 +7°C° 0 mm 3 mps 750 mmHg 88%
    13:00 +8°C° 0 mm 3 mps 750 mmHg 87%
    14:00 +8°C° 0 mm 3 mps 750 mmHg 88%
    15:00 +9°C° 0 mm 3 mps 750 mmHg 88%
    16:00 +9°C° 0 mm 2 mps 749 mmHg 88%
    17:00 +9°C° 0 mm 3 mps 749 mmHg 89%
    18:00 +8°C° 0 mm 3 mps 749 mmHg 91%
    19:00 +8°C° 0 mm 3 mps 749 mmHg 92%
    20:00 +8°C° 0 mm 3 mps 749 mmHg 92%
    21:00 +8°C° 0 mm 3 mps 748 mmHg 93%
    22:00 +7°C° 0 mm 3 mps 748 mmHg 93%
    23:00 +7°C° 0 mm 3 mps 748 mmHg 94%

    Tomorrow, 20 October, Saturday

    Time Temperature Precipitation Wind Pressure Humidity
    00:00 +7°C° 0 mm 3 mps 748 mmHg 94%
    01:00 +7°C° 0 mm 3 mps 748 mmHg 94%
    02:00 +7°C° 0.2 mm 4 mps 747 mmHg 95%
    03:00 +7°C° 0.2 mm 4 mps 747 mmHg 95%
    04:00 +8°C° 0.2 mm 4 mps 747 mmHg 96%
    05:00 +8°C° 0.8 mm 4 mps 747 mmHg 96%
    06:00 +8°C° 0.8 mm 4 mps 747 mmHg 96%
    07:00 +8°C° 0.8 mm 4 mps 746 mmHg 96%
    08:00 +8°C° 0.5 mm 4 mps 746 mmHg 96%
    09:00 +8°C° 0.5 mm 4 mps 746 mmHg 95%
    10:00 +8°C° 0.5 mm 4 mps 746 mmHg 95%
    11:00 +10°C° 1 mm 3 mps 746 mmHg 91%
    12:00 +10°C° 1 mm 3 mps 746 mmHg 86%
    13:00 +10°C° 1 mm 3 mps 747 mmHg 82%
    14:00 +10°C° 0.1 mm 3 mps 747 mmHg 81%
    15:00 +10°C° 0.1 mm 3 mps 747 mmHg 79%
    16:00 +9°C° 0.1 mm 3 mps 747 mmHg 77%
    17:00 +8°C° 0 mm 3 mps 747 mmHg 79%
    18:00 +8°C° 0 mm 2 mps 748 mmHg 82%
    19:00 +7°C° 0 mm 2 mps 748 mmHg 84%
    20:00 +7°C° 0 mm 2 mps 748 mmHg 84%
    21:00 +6°C° 0 mm 2 mps 749 mmHg 84%
    22:00 +6°C° 0 mm 2 mps 749 mmHg 84%
    23:00 +6°C° 0 mm 2 mps 749 mmHg 85%

    Day after tomorrow, 21 October, Sunday

    Time Temperature Precipitation Wind Pressure Humidity
    00:00 +4°C° 0 mm 3 mps 749 mmHg 86%
    01:00 +4°C° 0 mm 3 mps 750 mmHg 87%
    02:00 +4°C° 0 mm 3 mps 750 mmHg 89%
    03:00 +3°C° 0 mm 3 mps 750 mmHg 91%
    04:00 +3°C° 0 mm 3 mps 750 mmHg 93%
    05:00 +3°C° 0 mm 3 mps 751 mmHg 93%
    06:00 +3°C° 0 mm 3 mps 751 mmHg 94%
    07:00 +3°C° 0 mm 3 mps 751 mmHg 95%
    08:00 +3°C° 0 mm 3 mps 752 mmHg 92%
    09:00 +4°C° 0 mm 4 mps 752 mmHg 89%
    10:00 +4°C° 0 mm 4 mps 753 mmHg 85%
    11:00 +4°C° 0 mm 4 mps 753 mmHg 80%
    12:00 +5°C° 0 mm 4 mps 754 mmHg 75%
    13:00 +5°C° 0 mm 4 mps 754 mmHg 70%
    14:00 +4°C° 0 mm 4 mps 755 mmHg 71%
    15:00 +4°C° 0 mm 4 mps 755 mmHg 72%
    16:00 +4°C° 0 mm 4 mps 755 mmHg 73%
    17:00 +3°C° 0 mm 3 mps 756 mmHg 74%
    18:00 +3°C° 0 mm 3 mps 756 mmHg 74%
    19:00 +2°C° 0 mm 3 mps 757 mmHg 75%
    20:00 +2°C° 0 mm 3 mps 757 mmHg 76%
    21:00 +2°C° 0 mm 2 mps 757 mmHg 76%
    22:00 +2°C° 0 mm 2 mps 758 mmHg 77%
    23:00 +1°C° 0 mm 2 mps 758 mmHg 77%

    22 October, Monday

    Time Temperature Precipitation Wind Pressure Humidity
    00:00 +1°C° 0 mm 2 mps 758 mmHg 78%
    01:00 -1°C° 0 mm 2 mps 758 mmHg 78%
    02:00 +1°C° 0 mm 1 mps 759 mmHg 78%
    03:00 +1°C° 0 mm 1 mps 759 mmHg 78%
    04:00 +1°C° 0 mm 1 mps 759 mmHg 77%
    05:00 +1°C° 0 mm 1 mps 759 mmHg 78%
    06:00 +1°C° 0 mm 1 mps 759 mmHg 78%
    07:00 0°C° 0 mm 1 mps 760 mmHg 79%
    08:00 +1°C° 0 mm 1 mps 760 mmHg 74%
    09:00 +2°C° 0 mm 1 mps 760 mmHg 70%
    10:00 +3°C° 0 mm 1 mps 760 mmHg 65%
    11:00 +3°C° 0 mm 1 mps 760 mmHg 63%
    12:00 +4°C° 0 mm 1 mps 760 mmHg 60%
    13:00 +5°C° 0 mm 1 mps 760 mmHg 57%
    14:00 +4°C° 0 mm 1 mps 760 mmHg 60%
    15:00 +4°C° 0 mm 1 mps 760 mmHg 62%
    16:00 +3°C° 0 mm 0 mps 760 mmHg 65%
    17:00 +2°C° 0 mm 0 mps 760 mmHg 67%
    18:00 +1°C° 0 mm 0 mps 760 mmHg 70%
    19:00 +1°C° 0 mm 0 mps 760 mmHg 72%
    20:00 +2°C° 0 mm 1 mps 760 mmHg 73%
    21:00 +1°C° 0 mm 1 mps 760 mmHg 74%
    22:00 +1°C° 0 mm 1 mps 759 mmHg 75%
    23:00 -1°C° 0 mm 2 mps 759 mmHg 76%

    23 October, Tuesday

    Time Temperature Precipitation Wind Pressure Humidity
    00:00 -1°C° 0 mm 2 mps 759 mmHg 76%
    01:00 -1°C° 0 mm 2 mps 759 mmHg 77%
    02:00 -1°C° 0 mm 2 mps 759 mmHg 77%
    03:00 -1°C° 0 mm 2 mps 759 mmHg 78%
    04:00 -1°C° 0 mm 2 mps 758 mmHg 78%
    05:00 -1°C° 0 mm 2 mps 758 mmHg 78%
    06:00 -1°C° 0 mm 2 mps 758 mmHg 79%
    07:00 -1°C° 0 mm 3 mps 758 mmHg 79%
    08:00 0°C° 0 mm 3 mps 758 mmHg 74%
    09:00 +1°C° 0 mm 3 mps 758 mmHg 69%
    10:00 +2°C° 0 mm 3 mps 758 mmHg 64%
    11:00 +3°C° 0 mm 4 mps 758 mmHg 62%
    12:00 +4°C° 0 mm 4 mps 757 mmHg 60%
    13:00 +5°C° 0 mm 4 mps 757 mmHg 57%
    14:00 +4°C° 0 mm 4 mps 757 mmHg 61%
    15:00 +4°C° 0 mm 3 mps 757 mmHg 64%
    16:00 +3°C° 0 mm 3 mps 756 mmHg 67%
    17:00 +2°C° 0 mm 3 mps 756 mmHg 70%
    18:00 +2°C° 0 mm 3 mps 756 mmHg 72%
    19:00 +1°C° 0 mm 3 mps 756 mmHg 75%
    20:00 0°C° 0 mm 3 mps 756 mmHg 75%
    21:00 0°C° 0 mm 3 mps 756 mmHg 76%
    22:00 0°C° 0 mm 3 mps 755 mmHg 76%
    23:00 0°C° 0 mm 3 mps 755 mmHg 77%

    24 October, Wednesday

    Time Temperature Precipitation Wind Pressure Humidity
    00:00 0°C° 0 mm 3 mps 755 mmHg 79%
    01:00 0°C° 0 mm 3 mps 754 mmHg 80%
    02:00 0°C° 0 mm 3 mps 754 mmHg 79%
    03:00 0°C° 0 mm 4 mps 753 mmHg 78%
    04:00 0°C° 0 mm 4 mps 753 mmHg 77%
    05:00 0°C° 0 mm 4 mps 752 mmHg 78%
    06:00 0°C° 0 mm 5 mps 752 mmHg 79%
    07:00 +1°C° 0 mm 5 mps 751 mmHg 80%
    08:00 +2°C° 0 mm 5 mps 751 mmHg 78%
    09:00 +3°C° 0 mm 6 mps 750 mmHg 76%
    10:00 +5°C° 0 mm 6 mps 750 mmHg 74%
    11:00 +7°C° 0 mm 6 mps 749 mmHg 73%
    12:00 +8°C° 0 mm 7 mps 749 mmHg 71%
    13:00 +9°C° 0 mm 7 mps 748 mmHg 70%
    14:00 +9°C° 0 mm 7 mps 748 mmHg 71%
    15:00 +9°C° 0 mm 6 mps 747 mmHg 72%
    16:00 +9°C° 0 mm 6 mps 747 mmHg 73%
    17:00 +8°C° 0.2 mm 6 mps 747 mmHg 74%
    18:00 +8°C° 0.2 mm 6 mps 746 mmHg 74%
    19:00 +6°C° 0.2 mm 7 mps 746 mmHg 75%
    20:00 +6°C° 0.3 mm 7 mps 746 mmHg 76%
    21:00 +6°C° 0.3 mm 8 mps 745 mmHg 78%
    22:00 +6°C° 0.3 mm 8 mps 745 mmHg 79%
    23:00 +6°C° 0.1 mm 8 mps 745 mmHg 77%
    Show more